Location: Burgberg
(50.1428°N, 11.0671°E)
Time: 02:39:38
(UTC+00:00)

STARLINK-1026 - Pass Details

Date: 26 January 2020
Orbit: 405 x 407 km, 53.0° (Epoch: 22 February)

Event Time Altitude Azimuth Distance (km) Brightness Sun altitude
Exits shadow 04:53:36 64° 170° (S) 435 3.1 -19.8°
Maximum altitude 04:53:43 65° 154° (SSE) 432 3.1 -19.8°
Drops below altitude 10° 04:56:51 10° 72° (ENE) 1,418 6.7 -19.3°
Enters shadow 05:51:27 -71° 254° (WSW) 12,492 10.4 -10.7°
